Location: �terpigny
(49.8910°N, 2.9249°E)
Time: 10:24:08
(UTC+00:00)

NOSS 2-3 (C) - Pass Details

Date: 24 October 2021
Orbit: 536 x 1675 km, 63.3° (Epoch: 25 November)

Event Time Altitude Azimuth Distance (km) Brightness Sun altitude
Rises 18:22:02 0° 220° (SW) 2,690 7.4 -17.1°
Reaches altitude 10° 18:24:05 10° 219° (SW) 1,837 6.5 -17.5°
Maximum altitude 18:28:06 85° 135° (SE) 621 3.4 -18.1°
Enters shadow 18:30:51 25° 44° (NE) 1,366 4.9 -18.6°
